Date String (YYYY-MM-DD hh:mm:ss) UTC,Instrument flags,Ambient pressure (hPa),Sample flow (lpm),Bypass flow (lpm),Sample temperature (°C),Ambient temperature (°C),ASC tube jacket temperature (°C),LED temperature (°C),Box temperature (°C),Sample RH (%),Span deviation,Mass concentration (μg/m³),Mass concentration (μg/m³),Mass concentration (μg/m³)
DateTimeUTC,F1_M11,P_M11,Q1_M11,Q2_M11,T1_M11,T2_M11,T3_M11,T4_M11,T5_M11,U1_M11,ZSPAN_M11,X0_M11,X2_M11,X1_M11
2023-01-28 01:00:00,,0816.0,5.00,0.00,22.0,20.5,00.0,31.0,23.7,10.0,0000.0,0000.89,0000.57,0000.42
2023-01-28 01:01:00,,0815.9,5.01,0.00,22.0,20.4,00.0,31.0,23.6,10.1,0000.0,0000.83,0000.54,0000.42
2023-01-28 01:02:00,,0816.1,5.00,0.00,21.9,20.3,00.0,30.9,23.6,10.2,0000.0,0000.81,0000.54,0000.42
2023-01-28 01:03:00,,0816.1,5.00,0.00,21.9,20.7,00.0,30.9,23.7,10.3,0000.0,0000.89,0000.57,0000.43
2023-01-28 01:04:00,,0815.5,5.01,0.00,22.0,21.8,00.0,30.9,24.0,10.1,0000.0,0000.99,0000.60,0000.43
2023-01-28 01:05:00,,0815.4,4.99,0.00,22.2,22.7,00.0,30.9,24.2,10.1,0000.0,0001.10,0000.62,0000.44
2023-01-28 01:06:00,,0815.5,5.00,0.00,22.2,22.5,00.0,30.9,24.3,10.0,0000.0,0001.19,0000.65,0000.45
2023-01-28 01:07:00,,0815.5,5.00,0.00,22.3,22.1,00.0,31.0,24.2,10.0,0000.0,0001.26,0000.68,0000.45
2023-01-28 01:08:00,,0815.5,4.99,0.00,22.3,21.8,00.0,31.0,24.1,10.1,0000.0,0001.31,0000.69,0000.45
2023-01-28 01:09:00,,0815.9,5.00,0.00,22.2,21.5,00.0,31.0,24.0,10.2,0000.0,0001.37,0000.72,0000.46
2023-01-28 01:10:00,,0815.8,5.00,0.00,22.2,21.1,00.0,31.0,23.9,10.0,0000.0,0001.49,0000.76,0000.47
2023-01-28 01:11:00,,0815.4,5.00,0.00,22.2,20.8,00.0,31.0,23.8,09.9,0000.0,0001.71,0000.82,0000.48
2023-01-28 01:12:00,,0815.5,5.02,0.00,22.1,20.7,00.0,31.0,23.9,09.9,0000.0,0001.73,0000.82,0000.48
2023-01-28 01:13:00,,0815.7,5.00,0.00,22.1,20.5,00.0,31.0,23.8,10.0,0000.0,0001.70,0000.80,0000.46
2023-01-28 01:14:00,,0815.5,5.00,0.00,22.1,20.4,00.0,31.0,23.8,10.2,0000.0,0001.76,0000.80,0000.45
2023-01-28 01:15:00,,0815.4,5.00,0.00,22.1,20.3,00.0,31.0,23.7,10.1,0000.0,0001.73,0000.79,0000.45
2023-01-28 01:16:00,,0815.9,5.01,0.00,22.0,20.3,00.0,31.0,23.7,10.2,0000.0,0001.73,0000.81,0000.46
2023-01-28 01:17:00,,0816.0,5.00,0.00,22.0,20.3,00.0,31.0,23.7,10.2,0000.0,0001.70,0000.81,0000.46
2023-01-28 01:18:00,,0815.7,5.02,0.00,22.0,20.3,00.0,31.0,23.6,10.2,0000.0,0001.75,0000.84,0000.48
2023-01-28 01:19:00,,0815.7,4.99,0.00,22.0,20.3,00.0,31.0,23.7,10.4,0000.0,0001.76,0000.85,0000.48
2023-01-28 01:20:00,,0815.4,5.01,0.00,22.0,20.4,00.0,30.9,23.7,10.5,0000.0,0001.77,0000.86,0000.49
2023-01-28 01:21:00,,0815.5,5.00,0.00,22.0,20.4,00.0,30.9,23.7,10.6,0000.0,0002.08,0000.85,0000.48
2023-01-28 01:22:00,,0815.3,4.98,0.00,22.0,20.4,00.0,30.9,23.7,10.7,0000.0,0002.34,0000.81,0000.48
2023-01-28 01:23:00,,0815.4,5.00,0.00,21.9,20.4,00.0,30.9,23.6,10.3,0000.0,0003.61,0000.81,0000.48
2023-01-28 01:24:00,,0815.5,5.00,0.00,21.9,20.3,00.0,30.9,23.5,10.2,0000.0,0003.65,0000.84,0000.49
2023-01-28 01:25:00,,0815.4,5.00,0.00,21.8,20.2,00.0,30.9,23.4,10.4,0000.0,0003.53,0000.81,0000.50
2023-01-28 01:26:00,,0815.5,5.01,0.00,21.8,20.1,00.0,30.8,23.3,10.5,0000.0,0003.62,0000.83,0000.50
2023-01-28 01:27:00,,0815.8,5.00,0.00,21.7,20.0,00.0,30.8,23.3,10.5,0000.0,0003.59,0000.83,0000.51
2023-01-28 01:28:00,,0815.4,5.02,0.00,21.7,20.4,00.0,30.8,23.4,10.6,0000.0,0003.65,0000.82,0000.51
2023-01-28 01:29:00,,0815.4,5.00,0.00,21.8,21.4,00.0,30.7,23.7,10.6,0000.0,0003.65,0000.83,0000.51
2023-01-28 01:30:00,,0815.5,5.01,0.00,22.0,22.4,00.0,30.7,24.0,10.5,0000.0,0003.66,0000.84,0000.52
2023-01-28 01:31:00,,0815.4,4.98,0.00,22.0,22.1,00.0,30.8,23.9,10.5,0000.0,0003.68,0000.83,0000.51
2023-01-28 01:32:00,,0815.4,5.02,0.00,22.0,21.4,00.0,30.8,23.7,10.4,0000.0,0003.32,0000.80,0000.51
2023-01-28 01:33:00,,0815.5,5.00,0.00,21.9,20.9,00.0,30.8,23.5,10.6,0000.0,0002.93,0000.79,0000.52
2023-01-28 01:34:00,,0815.5,5.01,0.00,21.9,20.6,00.0,30.8,23.5,10.9,0000.0,0001.70,0000.80,0000.54
2023-01-28 01:35:00,,0815.4,5.00,0.00,21.8,20.5,00.0,30.8,23.5,10.9,0000.0,0002.85,0000.79,0000.55
2023-01-28 01:36:00,,0815.4,5.03,0.00,21.8,20.4,00.0,30.8,23.4,10.8,0000.0,0002.88,0000.81,0000.55
2023-01-28 01:37:00,,0815.4,5.00,0.00,21.8,20.3,00.0,30.8,23.4,10.8,0000.0,0002.90,0000.84,0000.55
2023-01-28 01:38:00,,0815.4,4.99,0.00,21.8,20.3,00.0,30.8,23.4,10.9,0000.0,0003.07,0000.85,0000.55
2023-01-28 01:39:00,,0815.4,5.01,0.00,21.8,20.3,00.0,30.8,23.4,10.9,0000.0,0003.57,0000.86,0000.55
2023-01-28 01:40:00,,0815.4,4.99,0.00,21.8,20.3,00.0,30.8,23.4,10.9,0000.0,0003.50,0000.82,0000.53
2023-01-28 01:41:00,,0815.3,5.00,0.00,21.8,20.3,00.0,30.8,23.3,10.9,0000.0,0003.43,0000.79,0000.53
2023-01-28 01:42:00,,0815.4,5.00,0.00,21.7,20.2,00.0,30.7,23.3,11.0,0000.0,0003.33,0000.76,0000.53
2023-01-28 01:43:00,,0815.4,5.02,0.00,21.7,20.1,00.0,30.7,23.2,11.1,0000.0,0003.30,0000.76,0000.52
2023-01-28 01:44:00,,0815.3,4.97,0.00,21.7,20.1,00.0,30.7,23.2,11.1,0000.0,0003.26,0000.74,0000.52
2023-01-28 01:45:00,,0815.3,4.99,0.00,21.6,20.0,00.0,30.7,23.2,11.2,0000.0,0003.15,0000.76,0000.51
2023-01-28 01:46:00,,0815.3,5.00,0.00,21.6,20.3,00.0,30.6,23.2,11.2,0000.0,0002.00,0000.78,0000.50
2023-01-28 01:47:00,,0815.3,5.03,0.00,21.7,21.4,00.0,30.6,23.5,11.3,0000.0,0002.08,0000.77,0000.50
2023-01-28 01:48:00,,0815.3,4.99,0.00,21.8,22.4,00.0,30.6,23.9,11.4,0000.0,0002.01,0000.74,0000.50
2023-01-28 01:49:00,,0815.3,4.99,0.00,21.9,22.3,00.0,30.7,23.9,11.3,0000.0,0001.79,0000.72,0000.50
2023-01-28 01:50:00,,0815.3,5.01,0.00,21.9,21.6,00.0,30.7,23.7,11.2,0000.0,0001.20,0000.69,0000.49
2023-01-28 01:51:00,,0815.3,5.00,0.00,21.9,21.0,00.0,30.7,23.5,11.2,0000.0,0001.24,0000.72,0000.49
2023-01-28 01:52:00,,0815.2,5.01,0.00,21.8,20.5,00.0,30.7,23.4,11.2,0000.0,0001.32,0000.76,0000.48
2023-01-28 01:53:00,,0815.5,4.98,0.00,21.7,20.2,00.0,30.7,23.3,11.3,0000.0,0001.34,0000.77,0000.49
2023-01-28 01:54:00,,0815.3,5.00,0.00,21.7,19.9,00.0,30.7,23.2,11.2,0000.0,0001.30,0000.76,0000.50
2023-01-28 01:55:00,,0815.4,5.01,0.00,21.6,19.7,00.0,30.7,23.1,11.3,0000.0,0001.36,0000.77,0000.50
2023-01-28 01:56:00,,0815.2,5.02,0.00,21.6,19.7,00.0,30.7,23.1,11.3,0000.0,0001.44,0000.78,0000.50
2023-01-28 01:57:00,,0815.3,5.00,0.00,21.5,19.6,00.0,30.6,23.0,11.4,0000.0,0001.42,0000.76,0000.49
2023-01-28 01:58:00,,0815.1,4.97,0.00,21.5,19.7,00.0,30.6,23.1,11.3,0000.0,0001.33,0000.75,0000.48
2023-01-28 01:59:00,,0815.1,5.01,0.00,21.5,19.8,00.0,30.6,23.1,11.3,0000.0,0001.21,0000.72,0000.48
